CW2732 Weather Reports


Display with metric or nautical units.
time (UTC)temp
F
wind
direction
speed
MPH
gust
MPH
rain 1hr
in
rain 24hr
in
rain mn
in
humidity
%
barometer
mb
20260508071337 63 134 0.0 5.0 0.00 2.48 0.00 73 1013.5
20260508070337 62 299 1.0 5.0 0.00 2.48 0.00 75 1013.4
20260508065329 61 269 0.0 5.0 0.00 2.48 0.00 77 1013.3
20260508064407 60 226 1.0 5.0 0.00 2.48 0.00 79 1013.3
20260508063404 59 253 0.0 5.0 0.00 2.48 0.00 80 1013.2
20260508062337 58 342 0.0 5.0 0.00 2.48 0.00 80 1013.0
20260508061347 58 202 1.0 5.0 0.00 2.48 0.00 80 1012.9
20260508060401 58 346 2.0 8.0 0.00 2.48 0.00 81 1012.6
20260508055334 57 336 2.0 8.0 0.00 2.48 0.00 82 1012.5
20260508054354 57 329 2.0 5.0 0.00 2.48 0.00 82 1012.7
20260508053415 57 317 1.0 3.0 0.00 2.48 0.00 83 1012.7
20260508052343 57 322 1.0 4.0 0.00 2.48 0.00 83 1012.8
20260508051342 56 305 1.0 4.0 0.00 2.48 0.00 83 1012.6
20260508050334 56 290 0.0 2.0 0.00 2.48 0.00 83 1012.5
20260508045413 57 281 0.0 1.0 0.00 2.48 0.00 83 1012.5
20260508044401 57 250 0.0 3.0 0.00 2.48 0.00 82 1012.2
20260508043338 57 267 1.0 3.0 0.00 2.48 0.00 82 1012.4
20260508042336 57 253 1.0 2.0 0.00 2.48 0.00 82 1012.4
20260508041334 57 340 1.0 7.0 0.00 2.48 0.00 81 1012.3
20260508040341 57 305 1.0 3.0 0.00 2.48 0.00 82 1012.0
20260508035334 57 284 1.0 6.0 0.00 2.48 0.00 82 1011.8
20260508034332 57 355 1.0 4.0 0.00 2.48 0.00 82 1011.8
20260508033334 57 327 1.0 8.0 0.00 2.48 0.00 82 1011.7
20260508032332 57 355 1.0 4.0 0.00 2.48 0.00 83 1012.1
20260508031352 57 310 0.0 4.0 0.00 2.48 0.00 83 1012.4
20260508030342 57 336 0.0 2.0 0.00 2.48 0.00 83 1012.5
20260508025334 57 18 1.0 6.0 0.00 2.48 0.00 83 1012.5
20260508024334 57 38 1.0 5.0 0.00 2.48 0.00 83 1012.4
20260508023344 57 126 0.0 5.0 0.00 2.48 0.00 83 1012.5
20260508022341 57 355 1.0 5.0 0.00 2.48 0.00 83 1012.5
20260508021332 57 334 2.0 6.0 0.00 2.48 0.00 83 1012.5
20260508020408 57 333 2.0 6.0 0.00 2.48 0.00 83 1012.7
20260508015359 57 275 1.0 5.0 0.00 2.48 0.00 83 1012.7
20260508014335 57 280 1.0 5.0 0.00 2.48 0.00 84 1012.7
20260508013355 57 314 2.0 7.0 0.00 2.48 0.00 84 1012.7
20260508012412 57 321 1.0 5.0 0.00 2.48 0.00 84 1012.8
20260508011339 57 355 1.0 8.0 0.00 2.48 0.00 85 1013.0
20260508010339 57 336 2.0 5.0 0.00 2.48 0.00 85 1013.2
20260508005352 57 282 0.0 4.0 0.00 2.48 0.00 86 1013.3
20260508004358 57 331 0.0 0.0 0.00 2.48 0.00 87 1013.6
20260508003338 57 317 0.0 2.0 0.00 2.48 0.00 87 1013.8
20260508002356 57 325 0.0 3.0 0.00 2.48 0.00 87 1013.7
20260508001341 57 355 0.0 1.0 0.00 2.48 0.00 87 1013.9
20260508000342 57 310 0.0 1.0 0.00 2.48 0.00 88 1013.9
20260507235356 57 311 0.0 3.0 0.00 2.48 0.00 88 1013.9
20260507234354 57 338 0.0 0.0 0.00 2.48 0.00 88 1014.1
20260507233342 57 299 0.0 0.0 0.00 2.48 0.00 88 1014.3
20260507232332 58 222 0.0 0.0 0.00 2.48 0.00 88 1014.3
20260507231333 58 249 0.0 1.0 0.00 2.48 0.00 88 1014.3
20260507230334 58 220 0.0 4.0 0.00 2.48 0.00 88 1014.2
20260507225406 58 273 0.0 3.0 0.00 2.48 0.00 88 1014.2
20260507224342 58 283 0.0 1.0 0.00 2.48 0.00 88 1014.3
20260507223334 58 294 0.0 3.0 0.00 2.48 0.00 88 1014.2
20260507222334 59 309 0.0 5.0 0.00 2.48 0.00 88 1014.1
20260507221351 59 261 0.0 0.0 0.00 2.48 0.00 89 1013.9
20260507220340 59 279 0.0 0.0 0.00 2.48 0.00 89 1013.9
20260507215333 59 302 0.0 0.0 0.00 2.48 0.50 89 1013.8
20260507214337 59 277 0.0 0.0 0.00 2.48 0.50 89 1013.8
20260507213336 59 298 0.0 0.0 0.00 2.48 0.50 89 1013.9
20260507212334 59 307 0.0 2.0 0.00 2.48 0.50 88 1013.9
20260507211331 59 302 0.0 2.0 0.00 2.48 0.50 88 1013.8
20260507210339 59 299 0.0 1.0 0.00 2.48 0.50 88 1013.9
20260507205334 59 299 0.0 1.0 0.00 2.48 0.50 88 1013.8
20260507204334 59 300 0.0 1.0 0.00 2.48 0.50 88 1013.8
20260507203341 59 290 0.0 2.0 0.00 2.48 0.50 88 1013.9
20260507202333 59 14 0.0 2.0 0.00 2.48 0.50 88 1013.9
20260507201350 59 34 0.0 1.0 0.00 2.48 0.50 88 1013.7
20260507200341 59 34 0.0 2.0 0.00 2.48 0.50 88 1013.7
20260507195332 59 342 0.0 1.0 0.00 2.48 0.50 88 1013.6
20260507194353 59 360 0.0 4.0 0.00 2.48 0.50 88 1013.4
20260507193340 59 45 2.0 6.0 0.00 2.48 0.50 88 1013.3
20260507192338 59 63 2.0 4.0 0.00 2.48 0.50 87 1013.1
20260507191358 59 20 1.0 3.0 0.00 2.48 0.50 87 1012.9
20260507190349 59 64 2.0 8.0 0.04 2.48 0.50 87 1012.8
20260507185355 59 355 5.0 8.0 0.08 2.48 0.50 87 1012.5
20260507184333 59 32 2.0 9.0 0.24 2.48 0.50 88 1012.5
20260507183338 60 360 4.0 9.0 0.31 2.48 0.50 89 1012.5
20260507182356 59 49 2.0 6.0 0.47 2.48 0.50 89 1012.1
20260507181336 59 9 1.0 6.0 0.75 2.48 0.50 90 1012.1
20260507180357 59 30 0.0 4.0 1.42 2.44 0.49 89 1012.1
20260507175341 59 11 2.0 6.0 1.69 2.40 0.48 89 1012.2
20260507174341 60 48 1.0 4.0 1.69 2.24 0.45 89 1012.2
20260507173334 60 360 0.0 4.0 1.89 2.13 0.43 89 1012.2
20260507172342 60 20 0.0 3.0 2.01 2.01 0.40 89 1012.2
20260507171344 61 235 0.0 3.0 1.69 1.69 0.34 89 1012.2
20260507170330 61 290 3.0 7.0 0.94 0.94 0.19 88 1012.2
20260507165345 62 202 3.0 5.0 0.71 0.71 0.14 88 1012.1
20260507164346 62 182 3.0 9.0 0.55 0.55 0.11 86 1011.6
20260507163337 63 86 5.0 12.0 0.24 0.24 0.05 83 1011.3
20260507162338 64 71 4.0 9.0 0.00 0.00 0.00 81 1011.1
20260507161357 65 107 6.0 16.0 0.00 0.00 0.00 79 1011.2
20260507160341 66 94 5.0 8.0 0.00 0.00 0.00 76 1011.2
20260507155348 67 107 5.0 17.0 0.00 0.00 0.00 76 1011.0
20260507154406 67 88 5.0 17.0 0.00 0.00 0.00 75 1011.1
20260507153336 67 88 4.0 17.0 0.00 0.00 0.00 75 1011.0
20260507152335 66 95 3.0 17.0 0.00 0.00 0.00 76 1011.1
20260507151354 66 74 2.0 17.0 0.00 0.00 0.00 78 1011.2
20260507150343 66 59 2.0 17.0 0.00 0.00 0.00 78 1011.1
20260507145355 67 120 3.0 17.0 0.00 0.00 0.00 76 1011.1
20260507144333 67 78 4.0 17.0 0.00 0.00 0.00 72 1011.1
20260507143346 68 90 4.0 17.0 0.00 0.00 0.00 67 1011.0
20260507142335 68 5 5.0 17.0 0.00 0.00 0.00 66 1010.9
20260507141354 68 97 6.0 17.0 0.00 0.00 0.00 66 1010.9
20260507140353 68 123 7.0 17.0 0.00 0.00 0.00 68 1010.9
20260507135335 68 71 6.0 17.0 0.00 0.00 0.00 67 1011.1
20260507134354 68 81 8.0 17.0 0.00 0.00 0.00 65 1011.2
20260507133332 68 62 8.0 17.0 0.00 0.00 0.00 64 1011.1
20260507132349 69 128 8.0 17.0 0.00 0.00 0.00 61 1011.2
20260507131339 70 130 5.0 17.0 0.00 0.00 0.00 60 1011.2
20260507130353 70 90 9.0 17.0 0.00 0.00 0.00 60 1011.4
20260507125336 70 66 10.0 17.0 0.00 0.00 0.00 59 1011.7
20260507124337 73 56 9.0 17.0 0.00 0.00 0.00 55 1011.6
20260507123335 72 44 7.0 17.0 0.00 0.00 0.00 59 1011.6
20260507122356 71 117 8.0 17.0 0.00 0.00 0.00 59 1011.7
20260507121345 71 88 8.0 17.0 0.00 0.00 0.00 59 1011.8
20260507120404 70 61 6.0 17.0 0.00 0.00 0.00 59 1012.0
20260507115333 70 73 9.0 17.0 0.00 0.00 0.00 59 1012.0
20260507114339 70 78 8.0 17.0 0.00 0.00 0.00 60 1012.0
20260507113356 69 90 6.0 17.0 0.00 0.00 0.00 62 1011.9
20260507112333 70 71 8.0 17.0 0.00 0.00 0.00 61 1012.1
20260507111413 70 331 5.0 17.0 0.00 0.00 0.00 60 1012.1
20260507110343 69 74 8.0 17.0 0.00 0.00 0.00 61 1012.2
20260507105334 69 56 7.0 17.0 0.00 0.00 0.00 63 1012.4
20260507104335 68 43 9.0 17.0 0.00 0.00 0.00 65 1012.5
20260507103338 68 62 7.0 17.0 0.00 0.00 0.00 66 1012.5
20260507102336 68 94 9.0 17.0 0.00 0.00 0.00 67 1012.5
20260507101352 68 90 6.0 16.0 0.00 0.00 0.00 66 1012.5
20260507100340 68 15 9.0 16.0 0.00 0.00 0.00 66 1012.6
20260507095333 68 80 5.0 15.0 0.00 0.00 0.00 68 1012.5
20260507094351 68 77 5.0 15.0 0.00 0.00 0.00 68 1012.6
20260507093338 68 44 8.0 14.0 0.00 0.00 0.00 68 1012.6
20260507092337 68 44 3.0 14.0 0.00 0.00 0.00 68 1012.7
20260507091335 68 78 8.0 14.0 0.00 0.00 0.00 67 1012.8
20260507090341 68 79 8.0 14.0 0.00 0.00 0.00 66 1012.6
20260507085329 68 76 8.0 13.0 0.00 0.00 0.00 68 1012.7
20260507084348 68 78 7.0 13.0 0.00 0.00 0.00 67 1012.8
20260507083344 67 74 6.0 13.0 0.00 0.00 0.00 68 1012.6
20260507082404 67 115 7.0 13.0 0.00 0.00 0.00 69 1012.5
20260507081334 67 48 4.0 13.0 0.00 0.00 0.00 67 1012.7
20260507080354 68 38 6.0 12.0 0.00 0.00 0.00 65 1012.7
20260507075347 68 39 6.0 12.0 0.00 0.00 0.00 64 1012.7
20260507074338 68 74 5.0 10.0 0.00 0.00 0.00 65 1012.3
20260507073352 68 60 4.0 10.0 0.00 0.00 0.00 64 1012.3
20260507072349 68 103 3.0 9.0 0.00 0.00 0.00 64 1012.2